Regional Weather Roundup
Issued by NWS

Home | Current Version | Previous Version | Graphics & Text | Print | Product List | Glossary On
Versions: 1 2 3 4 5 6 7 8 9 10 11 12 13 14 15 16 17 18 19 20 21 22 23 24 25 26 27 28 29 30 31 32 33 34 35 36 37 38 39 40 41 42 43 44 45 46 47 48 49 50
000
ASUS43 KDTX 100201
RWRMI
MICHIGAN HOURLY REGIONAL WEATHER ROUNDUP
NATIONAL WEATHER SERVICE DETROIT/PONTIAC MI
900 PM EST FRI DEC 09 2016

NOTE: "FAIR" INDICATES FEW OR NO CLOUDS BELOW 12,000 FEET WITH NO
SIGNIFICANT WEATHER AND/OR OBSTRUCTION TO VISIBILITY.

MIZ047>049-052>055-059>063-066>070-074>076-081>083-100300-
SOUTHEAST LOWER MICHIGAN

CITY           SKY/WX    TMP DP  RH WIND       PRES   REMARKS
ADRIAN         CLOUDY    25  19  78 W10       30.45R WCI  15
ALMA           CLOUDY    24  16  70 W8        30.39S WCI  16
ANN ARBOR      CLOUDY    25  19  78 W13       30.41S WCI  14
BAD AXE        LGT SNOW  26  20  78 W8        30.34F WCI  17
CARO           CLOUDY    26  18  73 W9        30.36S WCI  16
DETROIT CITY   CLOUDY    27  17  66 W9        30.41R WCI  18
DETROIT        CLOUDY    27  18  69 W12       30.43R WCI  17
FLINT          CLOUDY    25  17  72 W10       30.39S WCI  15
GROSSE ILE     CLOUDY    28  16  61 W10G16    30.42R WCI  19
HILLSDALE      FLURRIES  23  19  86 W9        30.41S WCI  13
HOWELL         CLOUDY    24  18  77 W8        30.39S WCI  16

CITY           SKY/WX    TMP DP  RH WIND       PRES   REMARKS
JACKSON        LGT SNOW  23  19  85 W10       30.41S WCI  12
LAMBERTVILLE   CLOUDY    28  20  74 W8        30.45R WCI  20
LANSING        CLOUDY    24  17  74 W10       30.41S WCI  14
LAPEER         NOT AVBL
MASON          FLURRIES  24  21  90 W6        30.41S WCI  16
MONROE         CLOUDY    27  22  80 W12G17    30.43R WCI  17
MT. CLEMENS    CLOUDY    28  18  68 W9        30.36S WCI  19
PONTIAC        CLOUDY    25  16  68 W12       30.37S WCI  14
PORT HURON     CLOUDY    27  16  63 W5        30.37S WCI  21
TRI CITIES     CLOUDY    24  18  77 W12       30.38F WCI  13
MIDLAND        CLOUDY    25  16  66 W7        30.37F WCI  18
TROY           CLOUDY    28  16  61 W9G17     30.41S WCI  19
SAGINAW HB     CLOUDY    27  18  69 W12       30.37F WCI  16
$$
MIZ043>046-050>051-056>058-064>065-071>073-077>080-100300-
SOUTHWEST LOWER MICHIGAN

CITY           SKY/WX    TMP DP  RH WIND       PRES   REMARKS
BATTLE CREEK   LGT SNOW  23  20  88 SW9       30.43S FOG     WCI  13
BENTON HARBOR  CLOUDY    28  12  51 NW10G17   30.46F WCI  19
BIG RAPIDS     CLOUDY    23  17  78 W7        30.36F WCI  14
COLDWATER      LGT SNOW  24  21  90 SW9       30.44S WCI  14
FREMONT        CLOUDY    23  15  72 CALM      30.40F
HOLLAND        CLOUDY    27  12  53 W10       30.43F WCI  17
GRAND RAPIDS   FLURRIES  23  18  81 W7        30.42F WCI  15
IONIA          CLOUDY    23  18  83 W8        30.40S WCI  13
KALAMAZOO      FLURRIES  24  18  77 SW6       30.43F WCI  17
LUDINGTON      FLURRIES  26  13  59 NW10G18   30.39F WCI  15
MARSHALL       LGT SNOW  24  20  87 SW8       30.42F WCI  14
MOUNT PLEASANT CLEAR     22  16  76 W5        30.37F WCI  16
MUSKEGON       FLURRIES  27  14  58 W12G21    30.42F WCI  17
SOUTH HAVEN    CLOUDY    28  14  56 NW10G17   30.45S WCI  18
$$
MIZ016>042-100300-
NORTHERN LOWER MICHIGAN

CITY           SKY/WX    TMP DP  RH WIND       PRES   REMARKS
ALPENA         CLOUDY    19  15  84 CALM      30.33F
BEAVER ISLAND  CLOUDY    24  13  65 W13       30.33F WCI  12
BELLAIRE       LGT SNOW  25  23  93 W3        30.34F
CADILLAC       FLURRIES  19  17  89 W6        30.31F WCI  11
CHARLEVOIX     CLOUDY    26  18  70 NW16G24   30.35F WCI  14
FRANKFORT      CLOUDY    26  19  74 NW6       30.37S WCI  19
GAYLORD        LGT SNOW  21  17  84 SW6       30.27F FOG     WCI  13
GRAYLING       LGT SNOW  23  21  91 SW7       30.31S WCI  15
HARBOR SPRINGS LGT SNOW  22  21  96 CALM      30.32S VSB 3/4
HOUGHTON LAKE  MOCLDY    21  18  88 W13       30.32F WCI   9
MANISTEE       LGT SNOW  25  17  72 W16G23    30.37F WCI  12
OSCODA         CLOUDY    25  17  72 CALM      30.32F
PELLSTON       LGT SNOW  21  18  88 N5        30.34S VSB 3/4 WCI  15
ROGERS CITY    CLOUDY    21  18  88 SW6       30.34F WCI  14
TRAVERSE CITY  LGT SNOW  24  20  84 W6        30.35F FOG     WCI  17
$$
MIZ007>008-015-100300-
EASTERN UPPER MICHIGAN

CITY           SKY/WX    TMP DP  RH WIND       PRES   REMARKS
KINROSS        LGT SNOW  15  13  91 CALM      30.31F FOG
MACKINAC ISLAN CLOUDY    21  15  76 N5        30.31F WCI  15
NEWBERRY       FLURRIES  14  13  97 W3        30.31F
S. S. MARIE    LGT SNOW  18  15  88 CALM      30.32F FOG
MUNISING         N/A     18  10  71 W10       30.35S WCI   6
$$
MIZ004>006-011>014-085-100300-
CENTRAL UPPER MICHIGAN

CITY           SKY/WX    TMP DP  RH WIND       PRES   REMARKS
MANISTIQUE     MOCLDY    16  10  79 W7        30.35S WCI   6
ESCANABA       FLURRIES  21  12  68 NW12      30.38F WCI   9
MENOMINEE      CLOUDY    20   6  55 NW8       30.43S WCI  10
SAWYER-GWINN   MOCLDY    14   7  73 W10       30.34F WCI   1
$$
MIZ001>003-009>011-084-100300-
WESTERN UPPER MICHIGAN

CITY           SKY/WX    TMP DP  RH WIND       PRES   REMARKS
IRON MOUNTAIN  PTCLDY    15   2  56 W7        30.36F WCI   5
HOUGHTON       LGT SNOW  16  11  80 W12       30.31F WCI   3
COPPER HARBOR    N/A     22  12  65 N10       30.33F WCI  11
IRONWOOD       FLURRIES  11   1  64 W14       30.40S WCI  -5
$$

ABBREVIATIONS USED IN REMARKS
   TC - TEMPERATURE IN CELSIUS
  WCI - WIND CHILL INDEX
   HX - HEAT INDEX
  VSB - VISIBILITY




USA.gov is the U.S. government's official web portal to all federal, state and local government web resources and services.